TimeCDT,TemperatureF,Dew PointF,Humidity,Sea Level PressureIn,VisibilityMPH,Wind Direction,Wind SpeedMPH,Gust SpeedMPH,PrecipitationIn,Events,Conditions,WindDirDegrees,DateUTC
12:56 AM,73.9,70.0,87,29.89,10.0,WNW,5.8,31.1,N/A,,Partly Cloudy,290,2013-08-31 05:56:00
1:56 AM,71.1,69.1,93,29.88,10.0,WSW,3.5,-,N/A,,Clear,240,2013-08-31 06:56:00
2:56 AM,72.0,68.0,87,29.85,10.0,East,4.6,-,N/A,,Clear,80,2013-08-31 07:56:00
3:56 AM,71.1,68.0,90,29.83,10.0,SSE,8.1,-,N/A,,Clear,150,2013-08-31 08:56:00
4:56 AM,71.1,69.1,93,29.84,10.0,ENE,4.6,-,N/A,,Clear,60,2013-08-31 09:56:00
5:56 AM,70.0,68.0,93,29.85,9.0,Calm,Calm,-,N/A,,Clear,0,2013-08-31 10:56:00
6:56 AM,69.1,66.0,90,29.86,9.0,SE,4.6,-,N/A,,Clear,130,2013-08-31 11:56:00
7:56 AM,70.0,66.0,87,29.87,10.0,SSW,4.6,-,N/A,,Clear,210,2013-08-31 12:56:00
8:56 AM,73.9,66.9,79,29.88,10.0,Calm,Calm,-,N/A,,Clear,0,2013-08-31 13:56:00
9:56 AM,79.0,66.9,66,29.87,10.0,Variable,3.5,-,N/A,,Clear,0,2013-08-31 14:56:00
10:56 AM,84.0,64.9,53,29.87,10.0,Variable,4.6,-,N/A,,Clear,0,2013-08-31 15:56:00
11:56 AM,84.9,64.0,49,29.85,10.0,South,3.5,-,N/A,,Clear,170,2013-08-31 16:56:00
12:56 PM,87.1,66.0,49,29.83,10.0,Variable,4.6,-,N/A,,Clear,0,2013-08-31 17:56:00
1:56 PM,90.0,64.9,43,29.81,10.0,South,5.8,-,N/A,,Clear,170,2013-08-31 18:56:00
2:56 PM,90.0,64.9,43,29.81,10.0,SSW,9.2,-,N/A,,Clear,210,2013-08-31 19:56:00
3:56 PM,91.0,66.0,44,29.79,10.0,SW,9.2,-,N/A,,Clear,220,2013-08-31 20:56:00
4:56 PM,91.0,66.0,44,29.78,10.0,SW,10.4,-,N/A,,Clear,230,2013-08-31 21:56:00
5:56 PM,91.0,64.9,42,29.76,10.0,SSW,8.1,-,N/A,,Clear,200,2013-08-31 22:56:00
6:56 PM,88.0,68.0,51,29.77,10.0,SW,4.6,-,N/A,,Clear,220,2013-08-31 23:56:00
7:56 PM,81.0,71.1,72,29.77,10.0,South,3.5,-,N/A,,Clear,190,2013-09-01 00:56:00
8:56 PM,73.9,70.0,87,29.79,10.0,South,3.5,-,N/A,,Clear,180,2013-09-01 01:56:00
9:56 PM,73.9,69.1,85,29.80,10.0,Calm,Calm,-,N/A,,Clear,0,2013-09-01 02:56:00
10:56 PM,73.9,69.1,85,29.79,10.0,Calm,Calm,-,N/A,,Clear,0,2013-09-01 03:56:00
11:56 PM,73.9,69.1,85,29.77,10.0,Calm,Calm,-,N/A,,Clear,0,2013-09-01 04:56:00